{"data":{"norad_id":37743,"intl_designator":"2011-033E","name":"GLOBALSTAR M081","alt_names":[],"object_type":"PAYLOAD","status":"ACTIVE","operator":null,"country":"GLOB","launch_date":"2011-07-13","launch_site_code":"TYMSC","launch_vehicle":null,"mission":null,"orbit_class":"UNKNOWN","rcs_meters":4.86,"size_class":null,"mass_kg":null,"dimensions":null,"purposes":["comms"],"wikipedia_slug":null,"has_3d_model":false,"image_url":null,"decayed_at":null,"tle_current":{"epoch":"2026-09-19T23:44:40.017120Z","epoch_age_seconds":62461,"freshness":"FRESH","line1":"1 37743U 11033E   26262.98935205 -.00000076  00000+0  15489-3 0  9994","line2":"2 37743  51.9943 267.0004 0000209  81.0381 296.3102 12.62266414701913","mean_motion":12.62266414,"eccentricity":2.09e-5,"inclination_deg":51.9943,"raan_deg":267.0004,"arg_perigee_deg":81.0381,"mean_anomaly_deg":296.3102,"bstar":0.00015489,"rev_number":70191,"period_min":114.08051295897,"perigee_km":1413.4408315883,"apogee_km":1413.7665263487,"semimajor_km":7791.7406789685,"source":"CELESTRAK","updated_at":"2026-09-20T09:00:45.039097Z"}}}